Time,TemperatureF,DewpointF,PressureIn,WindDirection,WindDirectionDegrees,WindSpeedMPH,WindSpeedGustMPH,Humidity,HourlyPrecipIn,Conditions,Clouds,dailyrainin,SoftwareType,DateUTC
2013-02-08 00:05:00,38.4,37.0,30.19,East,90,0.0,1.0,96,0.00,,,0.00,weatherlink.com 1.10,2013-02-08 08:05:00,
2013-02-08 00:20:00,38.2,37.0,30.20,East,90,0.0,1.0,96,0.00,,,0.00,weatherlink.com 1.10,2013-02-08 08:20:00,
2013-02-08 00:35:00,37.9,37.0,30.20,East,90,0.0,1.0,96,0.00,,,0.00,weatherlink.com 1.10,2013-02-08 08:35:00,
2013-02-08 00:50:00,37.7,37.0,30.20,East,90,0.0,1.0,96,0.00,,,0.00,weatherlink.com 1.10,2013-02-08 08:50:00,
2013-02-08 01:05:00,37.5,37.0,30.20,East,90,0.0,1.0,96,0.00,,,0.00,weatherlink.com 1.10,2013-02-08 09:05:00,
2013-02-08 01:20:00,37.4,36.0,30.20,East,90,0.0,1.0,96,0.00,,,0.00,weatherlink.com 1.10,2013-02-08 09:20:00,
2013-02-08 01:35:00,37.3,37.0,30.21,East,90,1.0,2.0,97,0.00,,,0.00,weatherlink.com 1.10,2013-02-08 09:35:00,
2013-02-08 01:50:00,38.1,38.0,30.21,East,90,0.0,2.0,98,0.00,,,0.00,weatherlink.com 1.10,2013-02-08 09:50:00,
2013-02-08 02:05:00,38.5,38.0,30.22,East,90,0.0,1.0,98,0.00,,,0.00,weatherlink.com 1.10,2013-02-08 10:05:00,
2013-02-08 02:20:00,39.2,39.0,30.22,NW,304,2.0,4.0,98,0.00,,,0.00,weatherlink.com 1.10,2013-02-08 10:20:00,
2013-02-08 02:35:00,40.7,40.0,30.23,WNW,291,3.0,5.0,98,0.00,,,0.00,weatherlink.com 1.10,2013-02-08 10:35:00,
2013-02-08 02:50:00,40.7,40.0,30.23,WNW,284,2.0,4.0,97,0.00,,,0.00,weatherlink.com 1.10,2013-02-08 10:50:00,
2013-02-08 03:05:00,40.4,39.0,30.23,WNW,284,0.0,2.0,95,0.00,,,0.00,weatherlink.com 1.10,2013-02-08 11:05:00,
2013-02-08 03:20:00,39.9,39.0,30.23,WNW,284,1.0,2.0,95,0.00,,,0.00,weatherlink.com 1.10,2013-02-08 11:20:00,
2013-02-08 03:36:00,39.9,39.0,30.23,WNW,284,1.0,3.0,95,0.00,,,0.00,weatherlink.com 1.10,2013-02-08 11:36:00,
2013-02-08 03:50:00,40.6,40.0,30.23,WNW,284,1.0,3.0,96,0.00,,,0.00,weatherlink.com 1.10,2013-02-08 11:50:00,
2013-02-08 04:05:00,40.9,40.0,30.24,WNW,284,1.0,2.0,95,0.00,,,0.00,weatherlink.com 1.10,2013-02-08 12:05:00,
2013-02-08 04:20:00,40.8,40.0,30.24,WNW,284,2.0,2.0,95,0.00,,,0.00,weatherlink.com 1.10,2013-02-08 12:20:00,
2013-02-08 04:36:00,41.1,40.0,30.24,WNW,284,1.0,4.0,94,0.00,,,0.00,weatherlink.com 1.10,2013-02-08 12:36:00,
2013-02-08 04:50:00,41.1,39.0,30.24,WNW,284,0.0,1.0,93,0.00,,,0.00,weatherlink.com 1.10,2013-02-08 12:50:00,
2013-02-08 05:05:00,40.8,39.0,30.24,WNW,284,0.0,1.0,93,0.00,,,0.00,weatherlink.com 1.10,2013-02-08 13:05:00,
2013-02-08 05:20:00,40.2,38.0,30.25,WNW,284,0.0,0.0,93,0.00,,,0.00,weatherlink.com 1.10,2013-02-08 13:20:00,
2013-02-08 05:35:00,39.5,38.0,30.25,WNW,284,0.0,1.0,94,0.00,,,0.00,weatherlink.com 1.10,2013-02-08 13:35:00,
2013-02-08 05:51:00,40.0,39.0,30.25,WNW,284,0.0,3.0,97,0.00,,,0.00,weatherlink.com 1.10,2013-02-08 13:51:00,
2013-02-08 06:05:00,40.4,39.0,30.25,WNW,284,1.0,1.0,95,0.00,,,0.00,weatherlink.com 1.10,2013-02-08 14:05:00,
2013-02-08 06:21:00,40.1,39.0,30.25,WNW,284,0.0,1.0,94,0.00,,,0.00,weatherlink.com 1.10,2013-02-08 14:21:00,
2013-02-08 06:36:00,40.0,39.0,30.26,WNW,284,0.0,1.0,95,0.00,,,0.00,weatherlink.com 1.10,2013-02-08 14:36:00,
2013-02-08 06:50:00,40.0,39.0,30.26,WNW,284,0.0,2.0,95,0.00,,,0.00,weatherlink.com 1.10,2013-02-08 14:50:00,
2013-02-08 07:05:00,40.1,39.0,30.26,WNW,284,0.0,2.0,94,0.00,,,0.00,weatherlink.com 1.10,2013-02-08 15:05:00,
2013-02-08 07:20:00,40.2,39.0,30.26,WNW,284,0.0,3.0,95,0.00,,,0.00,weatherlink.com 1.10,2013-02-08 15:20:00,
2013-02-08 07:35:00,40.1,39.0,30.27,WNW,284,0.0,2.0,95,0.00,,,0.00,weatherlink.com 1.10,2013-02-08 15:35:00,
2013-02-08 07:50:00,40.0,39.0,30.27,WNW,284,0.0,1.0,96,0.00,,,0.00,weatherlink.com 1.10,2013-02-08 15:50:00,
2013-02-08 08:06:00,40.2,39.0,30.27,WNW,284,1.0,2.0,96,0.00,,,0.00,weatherlink.com 1.10,2013-02-08 16:06:00,
2013-02-08 08:20:00,40.0,39.0,30.28,WNW,284,0.0,1.0,96,0.00,,,0.00,weatherlink.com 1.10,2013-02-08 16:20:00,
2013-02-08 08:36:00,39.8,39.0,30.28,WNW,284,0.0,1.0,96,0.00,,,0.00,weatherlink.com 1.10,2013-02-08 16:36:00,
2013-02-08 08:51:00,39.7,39.0,30.28,WNW,284,0.0,1.0,96,0.00,,,0.00,weatherlink.com 1.10,2013-02-08 16:51:00,
2013-02-08 09:06:00,39.8,39.0,30.29,WNW,284,0.0,1.0,96,0.00,,,0.00,weatherlink.com 1.10,2013-02-08 17:06:00,
2013-02-08 09:21:00,40.0,39.0,30.29,WNW,284,1.0,2.0,96,0.00,,,0.00,weatherlink.com 1.10,2013-02-08 17:21:00,
2013-02-08 09:39:00,40.2,39.0,30.30,WNW,284,0.0,2.0,95,0.00,,,0.00,weatherlink.com 1.10,2013-02-08 17:39:00,
2013-02-08 09:51:00,40.6,39.0,30.29,WNW,284,0.0,1.0,95,0.00,,,0.00,weatherlink.com 1.10,2013-02-08 17:51:00,
2013-02-08 10:06:00,41.0,39.0,30.30,WNW,284,0.0,0.0,94,0.00,,,0.00,weatherlink.com 1.10,2013-02-08 18:06:00,
2013-02-08 10:21:00,41.3,40.0,30.30,WNW,284,0.0,1.0,93,0.00,,,0.00,weatherlink.com 1.10,2013-02-08 18:21:00,
2013-02-08 10:51:00,41.4,39.0,30.30,WNW,284,0.0,1.0,92,0.00,,,0.00,weatherlink.com 1.10,2013-02-08 18:51:00,
2013-02-08 11:06:00,41.6,40.0,30.30,WNW,284,0.0,1.0,92,0.00,,,0.00,weatherlink.com 1.10,2013-02-08 19:06:00,
2013-02-08 11:21:00,42.3,40.0,30.30,WNW,284,0.0,2.0,91,0.00,,,0.00,weatherlink.com 1.10,2013-02-08 19:21:00,
2013-02-08 11:36:00,42.9,40.0,30.30,WNW,284,0.0,1.0,90,0.00,,,0.00,weatherlink.com 1.10,2013-02-08 19:36:00,
2013-02-08 11:51:00,43.3,40.0,30.29,WNW,284,0.0,1.0,89,0.00,,,0.00,weatherlink.com 1.10,2013-02-08 19:51:00,
2013-02-08 12:06:00,43.8,41.0,30.29,WNW,284,0.0,1.0,88,0.00,,,0.00,weatherlink.com 1.10,2013-02-08 20:06:00,
2013-02-08 12:21:00,43.7,40.0,30.28,WNW,284,1.0,2.0,88,0.00,,,0.00,weatherlink.com 1.10,2013-02-08 20:21:00,
2013-02-08 12:36:00,44.0,41.0,30.28,WNW,284,0.0,2.0,88,0.00,,,0.00,weatherlink.com 1.10,2013-02-08 20:36:00,
2013-02-08 12:51:00,43.9,40.0,30.28,WNW,284,1.0,2.0,86,0.00,,,0.00,weatherlink.com 1.10,2013-02-08 20:51:00,
2013-02-08 13:06:00,43.8,41.0,30.28,WNW,286,3.0,4.0,88,0.00,,,0.00,weatherlink.com 1.10,2013-02-08 21:06:00,
2013-02-08 13:21:00,43.2,40.0,30.29,WNW,301,1.0,4.0,89,0.00,,,0.00,weatherlink.com 1.10,2013-02-08 21:21:00,
2013-02-08 13:36:00,42.7,40.0,30.29,WNW,301,0.0,2.0,89,0.00,,,0.00,weatherlink.com 1.10,2013-02-08 21:36:00,
2013-02-08 13:51:00,42.9,40.0,30.28,WNW,301,0.0,2.0,89,0.00,,,0.00,weatherlink.com 1.10,2013-02-08 21:51:00,
2013-02-08 14:06:00,43.1,40.0,30.28,WNW,301,0.0,1.0,88,0.00,,,0.00,weatherlink.com 1.10,2013-02-08 22:06:00,
2013-02-08 14:21:00,43.1,40.0,30.28,WNW,301,0.0,2.0,89,0.00,,,0.00,weatherlink.com 1.10,2013-02-08 22:21:00,
2013-02-08 14:36:00,43.2,40.0,30.28,WNW,301,0.0,1.0,88,0.00,,,0.00,weatherlink.com 1.10,2013-02-08 22:36:00,
2013-02-08 14:51:00,43.4,40.0,30.28,WNW,302,0.0,4.0,87,0.00,,,0.00,weatherlink.com 1.10,2013-02-08 22:51:00,
2013-02-08 15:06:00,43.3,40.0,30.28,WNW,302,2.0,3.0,87,0.00,,,0.00,weatherlink.com 1.10,2013-02-08 23:06:00,
2013-02-08 15:21:00,43.4,40.0,30.28,WNW,289,1.0,3.0,88,0.00,,,0.00,weatherlink.com 1.10,2013-02-08 23:21:00,
2013-02-08 15:36:00,43.3,40.0,30.28,WNW,289,0.0,3.0,87,0.00,,,0.00,weatherlink.com 1.10,2013-02-08 23:36:00,
2013-02-08 15:51:00,43.1,40.0,30.28,WNW,289,0.0,2.0,87,0.00,,,0.00,weatherlink.com 1.10,2013-02-08 23:51:00,
2013-02-08 16:06:00,43.1,40.0,30.28,WNW,289,0.0,1.0,87,0.00,,,0.00,weatherlink.com 1.10,2013-02-09 00:06:00,
2013-02-08 16:21:00,43.0,39.0,30.27,WNW,289,0.0,0.0,87,0.00,,,0.00,weatherlink.com 1.10,2013-02-09 00:21:00,
2013-02-08 16:36:00,42.9,39.0,30.27,WNW,289,0.0,0.0,87,0.00,,,0.00,weatherlink.com 1.10,2013-02-09 00:36:00,
2013-02-08 16:51:00,42.8,40.0,30.28,WNW,289,0.0,0.0,88,0.00,,,0.00,weatherlink.com 1.10,2013-02-09 00:51:00,
2013-02-08 17:06:00,42.6,39.0,30.28,WNW,289,0.0,0.0,88,0.00,,,0.00,weatherlink.com 1.10,2013-02-09 01:06:00,
2013-02-08 17:21:00,42.1,39.0,30.28,WNW,289,0.0,0.0,88,0.00,,,0.00,weatherlink.com 1.10,2013-02-09 01:21:00,
2013-02-08 17:36:00,41.7,39.0,30.28,WNW,289,0.0,0.0,89,0.00,,,0.00,weatherlink.com 1.10,2013-02-09 01:36:00,
2013-02-08 17:51:00,41.4,39.0,30.28,WNW,289,0.0,0.0,90,0.00,,,0.00,weatherlink.com 1.10,2013-02-09 01:51:00,
2013-02-08 18:06:00,41.2,38.0,30.27,WNW,289,0.0,0.0,89,0.00,,,0.00,weatherlink.com 1.10,2013-02-09 02:06:00,
2013-02-08 18:21:00,41.1,38.0,30.28,WNW,289,0.0,0.0,90,0.00,,,0.00,weatherlink.com 1.10,2013-02-09 02:21:00,
2013-02-08 18:36:00,40.9,38.0,30.28,WNW,289,0.0,0.0,90,0.00,,,0.00,weatherlink.com 1.10,2013-02-09 02:36:00,
2013-02-08 18:51:00,40.9,38.0,30.27,WNW,289,0.0,0.0,90,0.00,,,0.00,weatherlink.com 1.10,2013-02-09 02:51:00,
2013-02-08 19:07:00,40.8,38.0,30.27,WNW,289,0.0,0.0,91,0.00,,,0.00,weatherlink.com 1.10,2013-02-09 03:07:00,
2013-02-08 19:21:00,40.5,38.0,30.27,WNW,289,0.0,0.0,90,0.00,,,0.00,weatherlink.com 1.10,2013-02-09 03:21:00,
2013-02-08 19:36:00,40.2,38.0,30.27,WNW,289,0.0,1.0,90,0.00,,,0.00,weatherlink.com 1.10,2013-02-09 03:36:00,
2013-02-08 19:51:00,40.1,38.0,30.27,WNW,289,0.0,1.0,91,0.00,,,0.00,weatherlink.com 1.10,2013-02-09 03:51:00,
2013-02-08 20:06:00,40.3,38.0,30.27,WNW,289,0.0,2.0,91,0.00,,,0.00,weatherlink.com 1.10,2013-02-09 04:06:00,
2013-02-08 20:22:00,40.5,38.0,30.27,WNW,289,0.0,1.0,91,0.00,,,0.00,weatherlink.com 1.10,2013-02-09 04:22:00,
2013-02-08 20:37:00,40.4,38.0,30.27,WNW,289,0.0,1.0,92,0.00,,,0.00,weatherlink.com 1.10,2013-02-09 04:37:00,
2013-02-08 20:51:00,40.4,38.0,30.27,WNW,289,2.0,2.0,91,0.00,,,0.00,weatherlink.com 1.10,2013-02-09 04:51:00,
2013-02-08 21:06:00,40.3,38.0,30.27,NE,50,1.0,3.0,91,0.00,,,0.00,weatherlink.com 1.10,2013-02-09 05:06:00,
2013-02-08 21:21:00,40.4,39.0,30.27,NE,50,1.0,3.0,93,0.00,,,0.00,weatherlink.com 1.10,2013-02-09 05:21:00,
2013-02-08 21:36:00,40.3,39.0,30.27,NE,50,1.0,3.0,93,0.00,,,0.00,weatherlink.com 1.10,2013-02-09 05:36:00,
2013-02-08 21:52:00,40.1,38.0,30.27,NE,50,2.0,3.0,93,0.00,,,0.00,weatherlink.com 1.10,2013-02-09 05:52:00,
2013-02-08 22:06:00,39.9,38.0,30.27,NE,50,2.0,3.0,94,0.00,,,0.00,weatherlink.com 1.10,2013-02-09 06:06:00,
2013-02-08 22:21:00,39.8,38.0,30.27,NE,50,1.0,4.0,94,0.00,,,0.00,weatherlink.com 1.10,2013-02-09 06:21:00,
2013-02-08 22:36:00,39.6,38.0,30.26,NE,50,2.0,4.0,93,0.00,,,0.00,weatherlink.com 1.10,2013-02-09 06:36:00,
2013-02-08 22:51:00,39.4,37.0,30.26,NE,50,2.0,4.0,92,0.00,,,0.00,weatherlink.com 1.10,2013-02-09 06:51:00,
2013-02-08 23:07:00,39.1,37.0,30.26,NE,50,3.0,4.0,93,0.00,,,0.00,weatherlink.com 1.10,2013-02-09 07:07:00,
2013-02-08 23:22:00,39.1,37.0,30.26,NE,50,1.0,3.0,93,0.00,,,0.00,weatherlink.com 1.10,2013-02-09 07:22:00,
2013-02-08 23:36:00,39.2,37.0,30.27,NE,50,1.0,3.0,93,0.00,,,0.00,weatherlink.com 1.10,2013-02-09 07:36:00,
2013-02-08 23:51:00,39.4,38.0,30.27,NE,50,1.0,3.0,93,0.00,,,0.00,weatherlink.com 1.10,2013-02-09 07:51:00,